�������l�o���
Date,Time,MP-1(��Sv/h),MP-2(��Sv/h),MP-3(��Sv/h),MP-4(��Sv/h),MP-5(��Sv/h),MP-6(��Sv/h),MP-7(��Sv/h),����,����(m/s),���J
2014/11/21,00:00,0.628,0.399,0.664,0.601,0.592,0.276,0.244,�k�k��,2.5,��
2014/11/21,00:10,0.628,0.400,0.664,0.598,0.590,0.276,0.244,�k�k��,2.3,��
2014/11/21,00:20,0.628,0.399,0.663,0.599,0.590,0.275,0.245,�k�k��,2.5,��
2014/11/21,00:30,0.627,0.399,0.665,0.599,0.590,0.275,0.244,�k�k��,2.5,��
2014/11/21,00:40,0.628,0.399,0.662,0.600,0.591,0.275,0.245,�k�k��,2.5,��
2014/11/21,00:50,0.628,0.399,0.664,0.601,0.589,0.276,0.243,�k,2.6,��
2014/11/21,01:00,0.628,0.400,0.662,0.598,0.589,0.277,0.245,�k�k��,2.2,��
2014/11/21,01:10,0.628,0.398,0.665,0.600,0.590,0.275,0.245,�k,1.1,��
2014/11/21,01:20,0.631,0.399,0.663,0.600,0.589,0.276,0.244,�k�k��,1.9,��
2014/11/21,01:30,0.628,0.398,0.663,0.599,0.590,0.276,0.244,�k,2.5,��
2014/11/21,01:40,0.629,0.398,0.663,0.600,0.591,0.276,0.244,�k�k��,2.7,��
2014/11/21,01:50,0.629,0.400,0.663,0.600,0.590,0.277,0.244,�k,2.5,��
2014/11/21,02:00,0.628,0.400,0.666,0.600,0.589,0.276,0.244,�k,2.8,��
2014/11/21,02:10,0.630,0.399,0.664,0.599,0.590,0.275,0.245,�k�k��,3.5,��
2014/11/21,02:20,0.628,0.398,0.662,0.601,0.591,0.275,0.243,�k�k��,3.7,��
2014/11/21,02:30,0.629,0.398,0.663,0.599,0.589,0.276,0.244,�k,3.7,��
2014/11/21,02:40,0.630,0.397,0.664,0.597,0.590,0.277,0.244,�k�k��,4.3,��
2014/11/21,02:50,0.628,0.399,0.665,0.599,0.593,0.277,0.244,�k�k��,4.4,��
2014/11/21,03:00,0.629,0.399,0.664,0.600,0.592,0.276,0.245,�k�k��,4.0,��
2014/11/21,03:10,0.629,0.399,0.662,0.599,0.589,0.277,0.245,�k�k��,4.0,��
2014/11/21,03:20,0.627,0.398,0.664,0.601,0.592,0.275,0.244,�k�k��,3.9,��
2014/11/21,03:30,0.627,0.398,0.665,0.601,0.588,0.275,0.244,�k,4.2,��
2014/11/21,03:40,0.627,0.399,0.665,0.601,0.590,0.275,0.244,�k,4.2,��
2014/11/21,03:50,0.629,0.398,0.664,0.601,0.592,0.276,0.242,�k,4.3,��
2014/11/21,04:00,0.630,0.399,0.662,0.601,0.590,0.275,0.244,�k,4.5,��
2014/11/21,04:10,0.629,0.400,0.664,0.600,0.589,0.278,0.243,�k,3.8,��
2014/11/21,04:20,0.628,0.399,0.665,0.600,0.590,0.275,0.243,�k�k��,3.4,��
2014/11/21,04:30,0.628,0.399,0.665,0.600,0.589,0.276,0.244,�k�k��,3.0,��
2014/11/21,04:40,0.627,0.399,0.663,0.600,0.591,0.276,0.244,�k�k��,4.5,��
2014/11/21,04:50,0.629,0.399,0.665,0.600,0.591,0.276,0.244,�k�k��,4.1,��
2014/11/21,05:00,0.629,0.399,0.664,0.601,0.591,0.276,0.243,�k�k��,4.4,��
2014/11/21,05:10,0.631,0.400,0.664,0.600,0.590,0.276,0.244,�k�k��,3.7,��
2014/11/21,05:20,0.629,0.399,0.664,0.601,0.590,0.275,0.245,�k�k��,5.0,��
2014/11/21,05:30,0.629,0.400,0.664,0.600,0.591,0.274,0.244,�k�k��,5.3,��
2014/11/21,05:40,0.630,0.399,0.663,0.600,0.590,0.277,0.244,�k�k��,4.2,��
2014/11/21,05:50,0.629,0.400,0.666,0.600,0.591,0.275,0.243,�k�k��,3.6,��
2014/11/21,06:00,0.628,0.398,0.664,0.599,0.592,0.275,0.244,�k,5.0,��
2014/11/21,06:10,0.630,0.400,0.664,0.600,0.592,0.275,0.243,�k,3.9,��
2014/11/21,06:20,0.627,0.400,0.665,0.600,0.590,0.275,0.244,�k�k��,3.9,��
2014/11/21,06:30,0.630,0.400,0.664,0.601,0.593,0.275,0.242,�k,4.4,��
2014/11/21,06:40,0.627,0.400,0.666,0.601,0.592,0.275,0.243,�k�k��,3.3,��
2014/11/21,06:50,0.630,0.400,0.665,0.599,0.591,0.276,0.245,�k,3.1,��
2014/11/21,07:00,0.629,0.400,0.662,0.600,0.591,0.275,0.244,�k,3.1,��
2014/11/21,07:10,0.629,0.399,0.665,0.599,0.590,0.275,0.243,�k,3.6,��
2014/11/21,07:20,0.631,0.400,0.665,0.599,0.592,0.276,0.243,�k,4.5,��
2014/11/21,07:30,0.628,0.399,0.665,0.601,0.590,0.276,0.243,�k,3.6,��
2014/11/21,07:40,0.630,0.400,0.663,0.599,0.592,0.275,0.243,�k,3.7,��
2014/11/21,07:50,0.630,0.399,0.666,0.601,0.592,0.276,0.245,�k�k��,3.5,��
2014/11/21,08:00,0.630,0.399,0.664,0.600,0.590,0.275,0.244,�k�k��,2.4,��
2014/11/21,08:10,0.630,0.399,0.665,0.600,0.592,0.276,0.244,�k�k��,2.3,��
2014/11/21,08:20,0.630,0.397,0.665,0.600,0.591,0.276,0.243,�k,2.8,��
2014/11/21,08:30,0.631,0.400,0.664,0.600,0.592,0.276,0.243,�k,4.1,��
2014/11/21,08:40,0.629,0.398,0.665,0.603,0.592,0.276,0.243,�k�k��,3.5,��
2014/11/21,08:50,0.630,0.398,0.666,0.600,0.593,0.274,0.243,�k,3.1,��
2014/11/21,09:00,0.629,0.399,0.664,0.602,0.591,0.276,0.246,�k,3.3,��
2014/11/21,09:10,0.630,0.398,0.665,0.601,0.589,0.276,0.243,�k,3.1,��
2014/11/21,09:20,0.630,0.400,0.664,0.600,0.592,0.275,0.243,�k�k��,2.9,��
2014/11/21,09:30,0.629,0.398,0.665,0.602,0.591,0.275,0.243,�k,3.0,��
2014/11/21,09:40,0.629,0.398,0.665,0.604,0.590,0.275,0.245,�k�k��,2.1,��
2014/11/21,09:50,0.629,0.399,0.667,0.602,0.592,0.277,0.243,�k�k��,2.5,��
2014/11/21,10:00,0.630,0.399,0.667,0.603,0.590,0.275,0.245,�k�k��,2.5,��
2014/11/21,10:10,0.631,0.399,0.664,0.605,0.592,0.276,0.243,�k��,2.8,��
2014/11/21,10:20,0.628,0.398,0.664,0.604,0.592,0.275,0.245,�k��,2.9,��
2014/11/21,10:30,0.631,0.399,0.667,0.603,0.593,0.275,0.243,�k��,2.8,��
2014/11/21,10:40,0.631,0.398,0.664,0.604,0.592,0.276,0.244,�k��,2.4,��
2014/11/21,10:50,0.629,0.399,0.666,0.604,0.593,0.276,0.244,�k�k��,2.8,��
2014/11/21,11:00,0.629,0.400,0.666,0.603,0.594,0.275,0.244,�k��,2.1,��
2014/11/21,11:10,0.630,0.400,0.665,0.603,0.593,0.275,0.243,�k��,1.7,��
2014/11/21,11:20,0.630,0.399,0.664,0.604,0.592,0.278,0.245,�k��,2.1,��
2014/11/21,11:30,0.631,0.401,0.665,0.602,0.591,0.276,0.244,�k��,2.1,��
2014/11/21,11:40,0.631,0.401,0.664,0.603,0.591,0.277,0.245,�k��,1.9,��
2014/11/21,11:50,0.630,0.401,0.665,0.602,0.594,0.276,0.245,�k��,2.4,��
2014/11/21,12:00,0.631,0.400,0.665,0.601,0.591,0.276,0.244,�k��,2.0,��
2014/11/21,12:10,0.631,0.400,0.666,0.604,0.592,0.277,0.245,���k��,2.0,��
2014/11/21,12:20,0.632,0.400,0.664,0.604,0.590,0.276,0.244,�k��,1.9,��
2014/11/21,12:30,0.632,0.399,0.666,0.606,0.591,0.277,0.244,���k��,2.8,��
2014/11/21,12:40,0.632,0.399,0.665,0.604,0.592,0.276,0.243,�k��,2.0,��
2014/11/21,12:50,0.633,0.399,0.667,0.605,0.592,0.275,0.244,�k��,1.9,��
2014/11/21,13:00,0.631,0.400,0.667,0.607,0.590,0.276,0.241,�k��,2.4,��
2014/11/21,13:10,0.630,0.401,0.667,0.607,0.592,0.275,0.244,�k�k��,1.9,��
2014/11/21,13:20,0.631,0.399,0.667,0.605,0.589,0.277,0.243,�k��,1.9,��
2014/11/21,13:30,0.631,0.400,0.667,0.607,0.589,0.275,0.245,�k��,1.6,��
2014/11/21,13:40,0.632,0.400,0.668,0.608,0.587,0.275,0.243,�k��,1.7,��
2014/11/21,13:50,0.628,0.399,0.665,0.608,0.590,0.274,0.245,�k�k��,1.4,��
2014/11/21,14:00,0.628,0.398,0.666,0.610,0.591,0.275,0.244,�k�k��,1.8,��
2014/11/21,14:10,0.629,0.399,0.665,0.608,0.589,0.273,0.244,�k�k��,1.9,��
2014/11/21,14:20,0.628,0.400,0.664,0.607,0.591,0.274,0.245,�k��,2.0,��
2014/11/21,14:30,0.628,0.399,0.665,0.605,0.590,0.274,0.244,�k�k��,0.9,��
2014/11/21,14:40,0.627,0.399,0.665,0.604,0.589,0.275,0.244,�k�k��,1.4,��
2014/11/21,14:50,0.629,0.401,0.663,0.605,0.591,0.275,0.245,�k�k��,1.6,��
2014/11/21,15:00,0.628,0.400,0.663,0.604,0.590,0.274,0.245,�k,1.7,��
2014/11/21,15:10,0.628,0.400,0.663,0.605,0.589,0.276,0.244,�k�k��,1.3,��
2014/11/21,15:20,0.627,0.399,0.663,0.601,0.590,0.273,0.244,�k�k��,1.4,��
2014/11/21,15:30,0.627,0.399,0.663,0.600,0.590,0.277,0.243,�k,1.2,��
2014/11/21,15:40,0.628,0.399,0.664,0.598,0.589,0.275,0.243,�k��,0.8,��
2014/11/21,15:50,0.627,0.399,0.663,0.597,0.588,0.275,0.245,�k�k��,1.4,��
2014/11/21,16:00,0.628,0.398,0.664,0.598,0.590,0.274,0.243,�k��,1.4,��
2014/11/21,16:10,0.628,0.397,0.662,0.599,0.589,0.275,0.243,�k��,1.3,��
2014/11/21,16:20,0.629,0.398,0.666,0.599,0.590,0.275,0.244,�k��,1.6,��
2014/11/21,16:30,0.630,0.398,0.662,0.597,0.588,0.275,0.244,�k��,1.4,��
2014/11/21,16:40,0.628,0.398,0.662,0.598,0.589,0.275,0.244,�k��,1.5,��
2014/11/21,16:50,0.628,0.398,0.664,0.596,0.590,0.275,0.243,�k�k��,1.7,��
2014/11/21,17:00,0.628,0.398,0.662,0.597,0.589,0.275,0.244,�k��,1.7,��
2014/11/21,17:10,0.628,0.398,0.662,0.599,0.588,0.275,0.245,���k��,1.9,��
2014/11/21,17:20,0.626,0.399,0.662,0.598,0.590,0.275,0.244,���k��,1.1,��
2014/11/21,17:30,0.628,0.398,0.663,0.599,0.589,0.276,0.244,-,CALM,��
2014/11/21,17:40,0.629,0.398,0.663,0.598,0.589,0.276,0.244,-,CALM,��
2014/11/21,17:50,0.628,0.398,0.662,0.597,0.589,0.276,0.245,-,CALM,��
2014/11/21,18:00,0.628,0.397,0.664,0.598,0.589,0.275,0.245,-,CALM,��
2014/11/21,18:10,0.627,0.398,0.663,0.599,0.587,0.275,0.245,-,CALM,��
2014/11/21,18:20,0.627,0.398,0.662,0.599,0.588,0.274,0.244,-,CALM,��
2014/11/21,18:30,0.627,0.395,0.664,0.597,0.588,0.276,0.245,���쐼,1.2,��
2014/11/21,18:40,0.628,0.397,0.663,0.597,0.588,0.277,0.244,�쐼,1.0,��
2014/11/21,18:50,0.629,0.397,0.663,0.600,0.589,0.276,0.244,�쐼,1.5,��
2014/11/21,19:00,0.627,0.398,0.662,0.599,0.588,0.276,0.245,�쐼,2.5,��
2014/11/21,19:10,0.627,0.398,0.662,0.598,0.588,0.276,0.244,��쐼,2.2,��
2014/11/21,19:20,0.627,0.396,0.664,0.598,0.587,0.276,0.243,��쐼,2.5,��
2014/11/21,19:30,0.627,0.397,0.664,0.597,0.588,0.275,0.246,�쐼,2.4,��
2014/11/21,19:40,0.627,0.398,0.662,0.598,0.587,0.276,0.244,��쐼,2.5,��
2014/11/21,19:50,0.628,0.397,0.663,0.599,0.588,0.275,0.246,��쐼,2.7,��
2014/11/21,20:00,0.628,0.397,0.661,0.600,0.588,0.276,0.244,�쐼,3.4,��
2014/11/21,20:10,0.628,0.398,0.662,0.599,0.589,0.275,0.244,�쐼,3.4,��
2014/11/21,20:20,0.628,0.398,0.664,0.599,0.590,0.277,0.245,�쐼,3.2,��
2014/11/21,20:30,0.627,0.398,0.662,0.599,0.588,0.275,0.245,�쐼,3.6,��
2014/11/21,20:40,0.626,0.398,0.662,0.599,0.588,0.276,0.245,��쐼,3.8,��
2014/11/21,20:50,0.628,0.398,0.663,0.598,0.589,0.277,0.245,��쐼,4.5,��
2014/11/21,21:00,0.627,0.397,0.662,0.600,0.589,0.275,0.245,��쐼,3.9,��
2014/11/21,21:10,0.626,0.398,0.663,0.598,0.589,0.275,0.245,�쐼,4.0,��
2014/11/21,21:20,0.627,0.397,0.662,0.599,0.588,0.275,0.245,�쐼,4.1,��
2014/11/21,21:30,0.627,0.398,0.665,0.599,0.588,0.275,0.244,�쐼,4.4,��
2014/11/21,21:40,0.626,0.396,0.664,0.600,0.587,0.275,0.245,�쐼,4.2,��
2014/11/21,21:50,0.627,0.398,0.662,0.598,0.588,0.276,0.244,�쐼,4.3,��
2014/11/21,22:00,0.628,0.398,0.661,0.598,0.589,0.277,0.245,�쐼,4.7,��
2014/11/21,22:10,0.627,0.398,0.662,0.598,0.589,0.276,0.244,�쐼,4.5,��
2014/11/21,22:20,0.625,0.398,0.661,0.598,0.587,0.276,0.246,�쐼,4.7,��
2014/11/21,22:30,0.628,0.397,0.662,0.597,0.590,0.276,0.244,�쐼,4.8,��
2014/11/21,22:40,0.628,0.397,0.662,0.598,0.589,0.275,0.246,�쐼,4.8,��
2014/11/21,22:50,0.627,0.398,0.663,0.599,0.587,0.275,0.243,�쐼,4.5,��
2014/11/21,23:00,0.626,0.398,0.661,0.598,0.588,0.275,0.244,�쐼,4.8,��
2014/11/21,23:10,0.628,0.396,0.662,0.598,0.590,0.275,0.245,��쐼,5.2,��
2014/11/21,23:20,0.627,0.398,0.662,0.597,0.587,0.276,0.243,��쐼,4.8,��
2014/11/21,23:30,0.627,0.398,0.664,0.599,0.589,0.274,0.244,��쐼,4.6,��
2014/11/21,23:40,0.625,0.399,0.662,0.597,0.588,0.277,0.244,��쐼,3.9,��
2014/11/21,23:50,0.626,0.397,0.661,0.597,0.587,0.276,0.244,�쐼,3.9,��
